{"data":{"norad_id":69023,"epoch":"2026-05-24T16:00:08.235936Z","epoch_age_seconds":97010,"freshness":"FRESH","line1":"1 69023U 26100AV  26144.66676199  .00006907  00000+0  32531-3 0  9994","line2":"2 69023  97.4093  42.9086 0005074  82.5012 277.6800 15.19824548  3232","mean_motion":15.19824548,"eccentricity":0.0005074,"inclination_deg":97.4093,"raan_deg":42.9086,"arg_perigee_deg":82.5012,"mean_anomaly_deg":277.68,"bstar":0.00032531,"rev_number":323,"period_min":94.747778741629,"perigee_km":502.87720583923,"apogee_km":509.86360395372,"semimajor_km":6884.5074048965,"source":"CELESTRAK","updated_at":"2026-05-25T13:38:09.042446Z"}}